TGL26FF OBBI-OEJN

Flight info

Callsign TGL26FF
Flight time 2h 8m
Altitude 38000
Route BHR B457 NARMI N112 GETOT Q212 KSA G782 VEMEM
Aircraft A339/H-SADE1E2E3GHIJ3J5M1P2RWXY/LB2D1

Departure

Time 2026-04-27 12:49
Airport Bahrain International Airport (OBBI)

Arrival

Time 2026-04-27 14:58
Airport King Abdulaziz International Airport (OEJN)
Time Latitude Longitude Altitude Speed Heading
2026-04-27 12:02 26.27087 50.62618 20 ft 0 kts 212°
2026-04-27 12:37 26.27095 50.62624 20 ft 2 kts 212°
2026-04-27 12:37 26.27108 50.62633 20 ft 2 kts 212°
2026-04-27 12:38 26.27121 50.62642 20 ft 2 kts 212°
2026-04-27 12:38 26.27133 50.62652 20 ft 2 kts 227°
2026-04-27 12:38 26.27142 50.62666 20 ft 2 kts 251°
2026-04-27 12:38 26.27145 50.62682 20 ft 2 kts 271°
2026-04-27 12:39 26.27143 50.62698 20 ft 2 kts 291°
2026-04-27 12:39 26.27139 50.62707 20 ft 0 kts 303°
2026-04-27 12:39 26.27137 50.62710 20 ft 0 kts 303°
2026-04-27 12:43 26.27138 50.62709 20 ft 0 kts 303°
2026-04-27 12:43 26.27146 50.62694 20 ft 3 kts 302°
2026-04-27 12:43 26.27169 50.62660 20 ft 6 kts 317°
2026-04-27 12:43 26.27217 50.62652 20 ft 7 kts
2026-04-27 12:44 26.27271 50.62663 20 ft 7 kts 353°
2026-04-27 12:44 26.27315 50.62627 20 ft 8 kts 301°
2026-04-27 12:44 26.27350 50.62566 20 ft 10 kts 303°
2026-04-27 12:44 26.27391 50.62496 20 ft 11 kts 303°
2026-04-27 12:45 26.27436 50.62418 20 ft 12 kts 303°
2026-04-27 12:45 26.27485 50.62335 20 ft 13 kts 302°
2026-04-27 12:45 26.27536 50.62246 20 ft 13 kts 303°
2026-04-27 12:45 26.27590 50.62153 20 ft 14 kts 303°
2026-04-27 12:46 26.27646 50.62057 20 ft 15 kts 302°
2026-04-27 12:46 26.27702 50.61958 20 ft 15 kts 303°
2026-04-27 12:46 26.27762 50.61856 20 ft 15 kts 303°
2026-04-27 12:46 26.27823 50.61751 20 ft 16 kts 303°
2026-04-27 12:47 26.27875 50.61663 20 ft 6 kts 304°
2026-04-27 12:47 26.27909 50.61630 20 ft 7 kts 343°
2026-04-27 12:47 26.27958 50.61645 20 ft 8 kts 33°
2026-04-27 12:47 26.28010 50.61690 20 ft 9 kts 54°
2026-04-27 12:48 26.28008 50.61765 20 ft 10 kts 112°
2026-04-27 12:48 26.27978 50.61822 20 ft 5 kts 123°
2026-04-27 12:48 26.27936 50.61895 20 ft 28 kts 122°
2026-04-27 12:48 26.27712 50.62284 20 ft 89 kts 123°
2026-04-27 12:49 26.27274 50.63043 20 ft 141 kts 123°
2026-04-27 12:49 26.26662 50.64101 78 ft 178 kts 121°
2026-04-27 12:49 26.26017 50.65263 630 ft 175 kts 121°
2026-04-27 12:49 26.25372 50.66409 1191 ft 175 kts 122°
2026-04-27 12:50 26.24856 50.67587 1743 ft 169 kts 96°
2026-04-27 12:50 26.24883 50.68892 2035 ft 173 kts 82°
2026-04-27 12:50 26.25103 50.70260 2239 ft 184 kts 79°
2026-04-27 12:50 26.25372 50.71687 2451 ft 195 kts 78°
2026-04-27 12:51 26.25663 50.73203 2664 ft 206 kts 74°
2026-04-27 12:51 26.26399 50.74589 2874 ft 218 kts 35°
2026-04-27 12:51 26.27866 50.75110 3106 ft 232 kts 355°
2026-04-27 12:51 26.29378 50.74426 3334 ft 246 kts 317°
2026-04-27 12:52 26.30254 50.72758 3571 ft 261 kts 281°
2026-04-27 12:52 26.30337 50.70711 3884 ft 273 kts 268°
2026-04-27 12:52 26.30222 50.68584 4445 ft 274 kts 268°
2026-04-27 12:52 26.30123 50.66472 5030 ft 272 kts 269°
2026-04-27 12:53 26.30023 50.62215 5985 ft 276 kts 271°
2026-04-27 12:53 26.30013 50.60087 6460 ft 278 kts 271°
2026-04-27 12:53 26.30017 50.57945 6949 ft 279 kts 271°
2026-04-27 12:54 26.30021 50.55769 7433 ft 281 kts 271°
2026-04-27 12:54 26.30028 50.53590 7935 ft 282 kts 271°
2026-04-27 12:54 26.30036 50.51429 8434 ft 283 kts 271°
2026-04-27 12:54 26.30042 50.49219 8914 ft 284 kts 271°
2026-04-27 12:55 26.30049 50.47013 9372 ft 285 kts 271°
2026-04-27 12:55 26.30053 50.44811 9781 ft 287 kts 271°
2026-04-27 12:55 26.30055 50.42583 10181 ft 289 kts 271°
2026-04-27 12:55 26.30061 50.40295 10402 ft 300 kts 271°
2026-04-27 12:56 26.30069 50.37958 10619 ft 311 kts 271°
2026-04-27 12:56 26.30077 50.35498 10852 ft 322 kts 271°
2026-04-27 12:56 26.30171 50.32967 11093 ft 333 kts 275°
2026-04-27 12:56 26.30432 50.30353 11329 ft 345 kts 278°
2026-04-27 12:57 26.30801 50.27680 11575 ft 355 kts 279°
2026-04-27 12:57 26.31186 50.24953 12012 ft 361 kts 279°
2026-04-27 12:57 26.31579 50.22190 12613 ft 363 kts 279°
2026-04-27 12:57 26.31972 50.19413 13139 ft 363 kts 279°
2026-04-27 12:58 26.32329 50.16612 13626 ft 367 kts 274°
2026-04-27 12:58 26.32316 50.13737 14143 ft 369 kts 269°
2026-04-27 12:58 26.32241 50.10898 14643 ft 373 kts 269°
2026-04-27 12:58 26.32163 50.07984 15172 ft 376 kts 269°
2026-04-27 12:59 26.32091 50.05056 15715 ft 377 kts 269°
2026-04-27 12:59 26.32040 50.02897 16075 ft 379 kts 269°
2026-04-27 12:59 26.31971 49.99909 16600 ft 382 kts 269°
2026-04-27 12:59 26.31905 49.96982 17118 ft 384 kts 269°
2026-04-27 13:00 26.31838 49.93975 17642 ft 388 kts 269°
2026-04-27 13:00 26.31771 49.90994 18171 ft 391 kts 269°
2026-04-27 13:00 26.31703 49.87956 18703 ft 393 kts 269°
2026-04-27 13:00 26.31635 49.84920 19217 ft 396 kts 269°
2026-04-27 13:01 26.31566 49.81842 19728 ft 398 kts 268°
2026-04-27 13:01 26.31495 49.78744 20226 ft 399 kts 268°
2026-04-27 13:01 26.31424 49.75651 20674 ft 402 kts 268°
2026-04-27 13:01 26.31353 49.72552 21121 ft 405 kts 268°
2026-04-27 13:02 26.31279 49.69383 21581 ft 407 kts 268°
2026-04-27 13:02 26.31205 49.66250 22020 ft 410 kts 267°
2026-04-27 13:02 26.31128 49.63091 22447 ft 412 kts 267°
2026-04-27 13:02 26.31049 49.59867 22868 ft 414 kts 267°
2026-04-27 13:03 26.30969 49.56670 23280 ft 416 kts 266°
2026-04-27 13:03 26.30888 49.53437 23688 ft 418 kts 266°
2026-04-27 13:03 26.30805 49.50205 24081 ft 419 kts 266°
2026-04-27 13:03 26.30723 49.46999 24488 ft 421 kts 266°
2026-04-27 13:04 26.30639 49.43728 24914 ft 422 kts 266°
2026-04-27 13:04 26.30557 49.40484 25335 ft 421 kts 266°
2026-04-27 13:04 26.30474 49.37212 25737 ft 423 kts 266°
2026-04-27 13:04 26.30389 49.33937 26147 ft 424 kts 266°
2026-04-27 13:05 26.30301 49.30638 26586 ft 424 kts 266°
2026-04-27 13:05 26.30214 49.27369 27013 ft 425 kts 266°
2026-04-27 13:05 26.30125 49.24088 27429 ft 425 kts 266°
2026-04-27 13:05 26.30034 49.20775 27846 ft 426 kts 266°
2026-04-27 13:06 26.29944 49.17525 28246 ft 427 kts 266°
2026-04-27 13:06 26.29852 49.14198 28667 ft 428 kts 266°
2026-04-27 13:06 26.29760 49.10896 29153 ft 425 kts 266°
2026-04-27 13:06 26.29566 49.07644 29689 ft 421 kts 264°
2026-04-27 13:07 26.29324 49.04443 30217 ft 418 kts 264°
2026-04-27 13:07 26.29079 49.01228 30745 ft 415 kts 264°
2026-04-27 13:07 26.28834 48.98037 31262 ft 413 kts 264°
2026-04-27 13:07 26.28591 48.94891 31741 ft 409 kts 264°
2026-04-27 13:08 26.28348 48.91749 32213 ft 406 kts 264°
2026-04-27 13:08 26.28105 48.88610 32696 ft 403 kts 264°
2026-04-27 13:08 26.27868 48.85553 33168 ft 399 kts 265°
2026-04-27 13:08 26.27632 48.82510 33636 ft 396 kts 265°
2026-04-27 13:09 26.27392 48.79437 34078 ft 393 kts 265°
2026-04-27 13:09 26.27157 48.76436 34437 ft 392 kts 265°
2026-04-27 13:09 26.26921 48.73416 34761 ft 392 kts 265°
2026-04-27 13:09 26.26685 48.70408 35069 ft 392 kts 265°
2026-04-27 13:10 26.26450 48.67396 35373 ft 391 kts 265°
2026-04-27 13:10 26.26212 48.64379 35662 ft 391 kts 265°
2026-04-27 13:10 26.25975 48.61388 35927 ft 391 kts 265°
2026-04-27 13:10 26.25733 48.58349 36159 ft 391 kts 265°
2026-04-27 13:11 26.25495 48.55369 36357 ft 392 kts 265°
2026-04-27 13:11 26.25248 48.52324 36553 ft 392 kts 264°
2026-04-27 13:11 26.24644 48.49406 36703 ft 396 kts 251°
2026-04-27 13:11 26.23499 48.46608 36894 ft 396 kts 248°
2026-04-27 13:12 26.22336 48.43816 37056 ft 397 kts 248°
2026-04-27 13:12 26.21174 48.41016 37183 ft 398 kts 248°
2026-04-27 13:12 26.20022 48.38242 37315 ft 400 kts 248°
2026-04-27 13:12 26.18844 48.35416 37466 ft 401 kts 248°
2026-04-27 13:13 26.17680 48.32629 37629 ft 402 kts 248°
2026-04-27 13:13 26.16491 48.29785 37789 ft 403 kts 248°
2026-04-27 13:13 26.14122 48.24127 37879 ft 406 kts 248°
2026-04-27 13:14 26.11735 48.18453 37899 ft 406 kts 246°
2026-04-27 13:14 26.10162 48.15829 37895 ft 412 kts 235°
2026-04-27 13:14 26.08322 48.13371 37876 ft 412 kts 235°
2026-04-27 13:15 26.04682 48.08464 37860 ft 412 kts 235°
2026-04-27 13:15 26.01057 48.03576 37862 ft 412 kts 235°
2026-04-27 13:16 25.97416 47.98677 37860 ft 412 kts 235°
2026-04-27 13:16 25.93752 47.93752 37859 ft 412 kts 235°
2026-04-27 13:17 25.90120 47.88878 37865 ft 412 kts 235°
2026-04-27 13:17 25.86461 47.83972 37871 ft 412 kts 235°
2026-04-27 13:18 25.82802 47.79069 37853 ft 412 kts 235°
2026-04-27 13:18 25.79167 47.74203 37825 ft 412 kts 235°
2026-04-27 13:19 25.75502 47.69304 37807 ft 412 kts 235°
2026-04-27 13:19 25.71829 47.64400 37799 ft 413 kts 235°
2026-04-27 13:20 25.68169 47.59512 37803 ft 413 kts 235°
2026-04-27 13:20 25.64508 47.54617 37812 ft 413 kts 235°
2026-04-27 13:21 25.60842 47.49722 37826 ft 414 kts 235°
2026-04-27 13:21 25.57163 47.44825 37841 ft 414 kts 235°
2026-04-27 13:22 25.53485 47.39939 37851 ft 415 kts 235°
2026-04-27 13:22 25.49769 47.35006 37858 ft 416 kts 235°
2026-04-27 13:23 25.46066 47.30097 37865 ft 416 kts 234°
2026-04-27 13:23 25.42358 47.25186 37869 ft 417 kts 234°
2026-04-27 13:24 25.38650 47.20284 37875 ft 417 kts 234°
2026-04-27 13:24 25.34927 47.15363 37881 ft 417 kts 234°
2026-04-27 13:25 25.31215 47.10468 37888 ft 418 kts 234°
2026-04-27 13:25 25.27466 47.05530 37895 ft 418 kts 234°
2026-04-27 13:26 25.23749 47.00634 37902 ft 418 kts 234°
2026-04-27 13:26 25.19986 46.95684 37908 ft 419 kts 234°
2026-04-27 13:27 25.16259 46.90785 37913 ft 419 kts 234°
2026-04-27 13:27 25.12502 46.85851 37914 ft 419 kts 234°
2026-04-27 13:28 25.08761 46.80944 37913 ft 420 kts 234°
2026-04-27 13:28 25.05015 46.76034 37909 ft 420 kts 234°
2026-04-27 13:29 25.01240 46.71093 37904 ft 420 kts 234°
2026-04-27 13:29 24.97568 46.66145 37899 ft 417 kts 240°
2026-04-27 13:30 24.94429 46.60781 37907 ft 416 kts 242°
2026-04-27 13:30 24.91331 46.55410 37912 ft 417 kts 241°
2026-04-27 13:31 24.88204 46.50022 37918 ft 417 kts 241°
2026-04-27 13:31 24.85082 46.44662 37926 ft 417 kts 241°
2026-04-27 13:32 24.81936 46.39271 37937 ft 417 kts 241°
2026-04-27 13:32 24.78816 46.33936 37952 ft 417 kts 241°
2026-04-27 13:33 24.75661 46.28547 37965 ft 418 kts 241°
2026-04-27 13:33 24.72516 46.23181 37976 ft 419 kts 241°
2026-04-27 13:34 24.69362 46.17804 37966 ft 419 kts 241°
2026-04-27 13:34 24.66206 46.12431 37947 ft 419 kts 241°
2026-04-27 13:35 24.63050 46.07064 37932 ft 420 kts 241°
2026-04-27 13:35 24.59873 46.01666 37924 ft 420 kts 241°
2026-04-27 13:36 24.56708 45.96294 37920 ft 420 kts 241°
2026-04-27 13:36 24.53534 45.90916 37922 ft 421 kts 241°
2026-04-27 13:37 24.50341 45.85512 37924 ft 420 kts 241°
2026-04-27 13:37 24.47178 45.80162 37925 ft 420 kts 241°
2026-04-27 13:38 24.44214 45.74668 37924 ft 417 kts 247°
2026-04-27 13:38 24.41690 45.68944 37925 ft 418 kts 247°
2026-04-27 13:39 24.39176 45.63235 37927 ft 418 kts 247°
2026-04-27 13:39 24.36639 45.57512 37929 ft 418 kts 247°
2026-04-27 13:40 24.34086 45.51774 37931 ft 418 kts 247°
2026-04-27 13:40 24.31535 45.46054 37927 ft 418 kts 247°
2026-04-27 13:41 24.28989 45.40356 37910 ft 417 kts 247°
2026-04-27 13:41 24.26439 45.34652 37885 ft 417 kts 247°
2026-04-27 13:42 24.23891 45.28959 37857 ft 417 kts 247°
2026-04-27 13:42 24.21346 45.23281 37835 ft 417 kts 247°
2026-04-27 13:43 24.18790 45.17583 37838 ft 416 kts 247°
2026-04-27 13:43 24.16236 45.11901 37853 ft 416 kts 247°
2026-04-27 13:44 24.13697 45.06260 37869 ft 416 kts 247°
2026-04-27 13:44 24.11139 45.00585 37884 ft 416 kts 247°
2026-04-27 13:45 24.08580 44.94917 37896 ft 415 kts 247°
2026-04-27 13:45 24.06019 44.89251 37904 ft 415 kts 247°
2026-04-27 13:46 24.03472 44.83621 37911 ft 415 kts 247°
2026-04-27 13:46 24.00919 44.77986 37917 ft 415 kts 247°
2026-04-27 13:47 23.98350 44.72324 37923 ft 415 kts 247°
2026-04-27 13:47 23.95799 44.66707 37932 ft 415 kts 247°
2026-04-27 13:48 23.93221 44.61035 37938 ft 417 kts 248°
2026-04-27 13:48 23.91600 44.55009 37936 ft 415 kts 259°
2026-04-27 13:49 23.90307 44.48882 37937 ft 415 kts 258°
2026-04-27 13:49 23.89008 44.42763 37934 ft 415 kts 259°
2026-04-27 13:50 23.87706 44.36654 37928 ft 414 kts 259°
2026-04-27 13:50 23.86398 44.30539 37920 ft 414 kts 258°
2026-04-27 13:51 23.85087 44.24420 37913 ft 414 kts 258°
2026-04-27 13:51 23.83778 44.18330 37913 ft 414 kts 258°
2026-04-27 13:52 23.82461 44.12214 37916 ft 413 kts 258°
2026-04-27 13:52 23.81148 44.06137 37921 ft 413 kts 258°
2026-04-27 13:53 23.79165 43.96984 37921 ft 413 kts 258°
2026-04-27 13:54 23.77842 43.90890 37922 ft 413 kts 258°
2026-04-27 13:54 23.76523 43.84829 37924 ft 413 kts 258°
2026-04-27 13:55 23.75196 43.78759 37927 ft 413 kts 258°
2026-04-27 13:55 23.73859 43.72666 37931 ft 413 kts 258°
2026-04-27 13:56 23.72518 43.66571 37936 ft 413 kts 258°
2026-04-27 13:56 23.71180 43.60499 37940 ft 413 kts 258°
2026-04-27 13:57 23.69843 43.54441 37941 ft 413 kts 258°
2026-04-27 13:57 23.68494 43.48349 37939 ft 414 kts 258°
2026-04-27 13:58 23.67148 43.42280 37938 ft 414 kts 258°
2026-04-27 13:58 23.65788 43.36168 37939 ft 414 kts 258°
2026-04-27 13:59 23.64430 43.30077 37943 ft 414 kts 258°
2026-04-27 13:59 23.63071 43.23991 37945 ft 414 kts 258°
2026-04-27 14:00 23.61713 43.17917 37950 ft 414 kts 258°
2026-04-27 14:00 23.60349 43.11826 37956 ft 414 kts 258°
2026-04-27 14:01 23.58992 43.05782 37962 ft 414 kts 258°
2026-04-27 14:01 23.57619 42.99680 37967 ft 414 kts 258°
2026-04-27 14:02 23.56254 42.93628 37968 ft 414 kts 258°
2026-04-27 14:02 23.54881 42.87552 37967 ft 414 kts 258°
2026-04-27 14:03 23.53507 42.81488 37964 ft 414 kts 258°
2026-04-27 14:03 23.52124 42.75389 37962 ft 413 kts 258°
2026-04-27 14:04 23.50760 42.69358 37958 ft 413 kts 258°
2026-04-27 14:04 23.49388 42.63308 37953 ft 413 kts 258°
2026-04-27 14:05 23.48003 42.57227 37950 ft 412 kts 258°
2026-04-27 14:05 23.46628 42.51206 37951 ft 412 kts 258°
2026-04-27 14:06 23.45247 42.45166 37955 ft 412 kts 258°
2026-04-27 14:06 23.43860 42.39112 37963 ft 412 kts 258°
2026-04-27 14:07 23.42476 42.33081 37971 ft 411 kts 258°
2026-04-27 14:07 23.41091 42.27060 37972 ft 411 kts 258°
2026-04-27 14:08 23.39706 42.21049 37973 ft 411 kts 258°
2026-04-27 14:08 23.38317 42.15028 37970 ft 411 kts 258°
2026-04-27 14:09 23.36922 42.08997 37967 ft 411 kts 258°
2026-04-27 14:09 23.35529 42.02986 37964 ft 411 kts 258°
2026-04-27 14:10 23.34136 41.96990 37961 ft 411 kts 258°
2026-04-27 14:10 23.32740 41.90989 37962 ft 411 kts 258°
2026-04-27 14:11 23.31336 41.84964 37964 ft 411 kts 257°
2026-04-27 14:11 23.29931 41.78967 37967 ft 410 kts 257°
2026-04-27 14:12 23.28498 41.72971 37968 ft 412 kts 253°
2026-04-27 14:12 23.27246 41.70168 37972 ft 418 kts 242°
2026-04-27 14:12 23.25665 41.67504 37978 ft 419 kts 241°
2026-04-27 14:13 23.22516 41.62177 37988 ft 419 kts 242°
2026-04-27 14:13 23.19371 41.56855 37998 ft 419 kts 241°
2026-04-27 14:14 23.16229 41.51542 38015 ft 420 kts 241°
2026-04-27 14:14 23.13080 41.46223 38035 ft 420 kts 241°
2026-04-27 14:15 23.09905 41.40867 38046 ft 420 kts 241°
2026-04-27 14:15 23.06742 41.35536 38050 ft 421 kts 241°
2026-04-27 14:16 23.03581 41.30216 38051 ft 421 kts 241°
2026-04-27 14:16 23.00397 41.24861 38048 ft 421 kts 241°
2026-04-27 14:17 22.97228 41.19538 38044 ft 421 kts 241°
2026-04-27 14:17 22.94042 41.14190 38040 ft 422 kts 241°
2026-04-27 14:18 22.90868 41.08868 38037 ft 422 kts 241°
2026-04-27 14:18 22.87672 41.03516 38035 ft 422 kts 240°
2026-04-27 14:19 22.84485 40.98186 38033 ft 422 kts 240°
2026-04-27 14:19 22.81281 40.92835 38031 ft 422 kts 240°
2026-04-27 14:20 22.78086 40.87504 38030 ft 423 kts 240°
2026-04-27 14:20 22.74888 40.82175 38028 ft 423 kts 240°
2026-04-27 14:21 22.71681 40.76835 38028 ft 423 kts 240°
2026-04-27 14:21 22.68463 40.71484 38028 ft 423 kts 240°
2026-04-27 14:22 22.65249 40.66144 37989 ft 425 kts 240°
2026-04-27 14:22 22.63641 40.63475 37787 ft 423 kts 240°
2026-04-27 14:22 22.62030 40.60802 37569 ft 421 kts 240°
2026-04-27 14:22 22.60442 40.58169 37312 ft 418 kts 240°
2026-04-27 14:23 22.58868 40.55561 36966 ft 416 kts 240°
2026-04-27 14:23 22.57286 40.52939 36499 ft 416 kts 240°
2026-04-27 14:23 22.55707 40.50324 35987 ft 416 kts 240°
2026-04-27 14:23 22.54133 40.47717 35441 ft 416 kts 240°
2026-04-27 14:24 22.52544 40.45088 34913 ft 414 kts 240°
2026-04-27 14:24 22.50989 40.42516 34380 ft 412 kts 240°
2026-04-27 14:24 22.49407 40.39901 33842 ft 411 kts 240°
2026-04-27 14:24 22.47866 40.37357 33295 ft 409 kts 240°
2026-04-27 14:25 22.46308 40.34786 32747 ft 408 kts 240°
2026-04-27 14:25 22.44743 40.32203 32203 ft 407 kts 240°
2026-04-27 14:25 22.43202 40.29663 31680 ft 405 kts 240°
2026-04-27 14:25 22.41660 40.27119 31169 ft 404 kts 240°
2026-04-27 14:26 22.40134 40.24603 30653 ft 404 kts 240°
2026-04-27 14:26 22.38603 40.22081 30121 ft 403 kts 240°
2026-04-27 14:26 22.37065 40.19547 29571 ft 403 kts 240°
2026-04-27 14:26 22.35523 40.17008 29039 ft 402 kts 240°
2026-04-27 14:27 22.34003 40.14507 28526 ft 402 kts 240°
2026-04-27 14:27 22.32465 40.11980 28014 ft 402 kts 239°
2026-04-27 14:27 22.30939 40.09472 27468 ft 402 kts 239°
2026-04-27 14:27 22.29423 40.06982 27135 ft 393 kts 239°
2026-04-27 14:28 22.27939 40.04549 26984 ft 380 kts 239°
2026-04-27 14:28 22.26509 40.02203 26837 ft 367 kts 239°
2026-04-27 14:28 22.25140 39.99957 26722 ft 354 kts 239°
2026-04-27 14:28 22.23808 39.97776 26663 ft 341 kts 239°
2026-04-27 14:29 22.22524 39.95674 26608 ft 329 kts 239°
2026-04-27 14:29 22.21295 39.93662 26552 ft 318 kts 238°
2026-04-27 14:29 22.20093 39.91694 26487 ft 310 kts 238°
2026-04-27 14:29 22.18902 39.89745 26423 ft 307 kts 238°
2026-04-27 14:30 22.17743 39.87848 26360 ft 305 kts 238°
2026-04-27 14:30 22.16578 39.85938 26206 ft 306 kts 238°
2026-04-27 14:30 22.15396 39.84005 25884 ft 307 kts 238°
2026-04-27 14:30 22.14234 39.82101 25568 ft 306 kts 238°
2026-04-27 14:31 22.13063 39.80186 25261 ft 305 kts 238°
2026-04-27 14:31 22.11901 39.78286 24963 ft 304 kts 238°
2026-04-27 14:31 22.10743 39.76393 24656 ft 301 kts 238°
2026-04-27 14:31 22.09588 39.74507 24333 ft 299 kts 238°
2026-04-27 14:32 22.08446 39.72642 24018 ft 297 kts 238°
2026-04-27 14:32 22.07320 39.70804 23711 ft 295 kts 237°
2026-04-27 14:32 22.06190 39.68962 23414 ft 292 kts 237°
2026-04-27 14:32 22.05078 39.67149 23130 ft 289 kts 237°
2026-04-27 14:33 22.03969 39.65342 22846 ft 287 kts 237°
2026-04-27 14:33 22.02879 39.63567 22569 ft 285 kts 236°
2026-04-27 14:33 22.01783 39.61784 22295 ft 284 kts 236°
2026-04-27 14:33 22.00694 39.60013 22029 ft 283 kts 236°
2026-04-27 14:34 21.99603 39.58242 21758 ft 282 kts 236°
2026-04-27 14:34 21.98527 39.56493 21489 ft 281 kts 236°
2026-04-27 14:34 21.97447 39.54738 21218 ft 280 kts 236°
2026-04-27 14:34 21.96375 39.52998 20940 ft 279 kts 236°
2026-04-27 14:35 21.95305 39.51262 20646 ft 278 kts 236°
2026-04-27 14:35 21.94271 39.49509 20344 ft 277 kts 242°
2026-04-27 14:35 21.93412 39.47657 20048 ft 277 kts 244°
2026-04-27 14:35 21.92588 39.45795 19751 ft 276 kts 244°
2026-04-27 14:36 21.91759 39.43921 19449 ft 276 kts 244°
2026-04-27 14:36 21.90940 39.42074 19150 ft 276 kts 244°
2026-04-27 14:36 21.90107 39.40200 18845 ft 275 kts 245°
2026-04-27 14:36 21.89280 39.38340 18545 ft 275 kts 245°
2026-04-27 14:37 21.88460 39.36499 18249 ft 274 kts 245°
2026-04-27 14:37 21.87646 39.34675 17957 ft 273 kts 245°
2026-04-27 14:37 21.86816 39.32812 17659 ft 273 kts 245°
2026-04-27 14:37 21.86001 39.30985 17367 ft 272 kts 245°
2026-04-27 14:38 21.85188 39.29163 17204 ft 265 kts 245°
2026-04-27 14:38 21.84409 39.27426 17179 ft 253 kts 245°
2026-04-27 14:38 21.83646 39.25716 17144 ft 252 kts 246°
2026-04-27 14:38 21.82891 39.24028 17104 ft 252 kts 246°
2026-04-27 14:39 21.82123 39.22312 17059 ft 253 kts 244°
2026-04-27 14:39 21.81117 39.20766 16907 ft 257 kts 233°
2026-04-27 14:39 21.79928 39.19302 16603 ft 258 kts 232°
2026-04-27 14:39 21.78753 39.17873 16317 ft 258 kts 232°
2026-04-27 14:40 21.77563 39.16421 16038 ft 258 kts 232°
2026-04-27 14:40 21.76373 39.14966 15764 ft 256 kts 232°
2026-04-27 14:40 21.75206 39.13535 15493 ft 256 kts 232°
2026-04-27 14:40 21.74042 39.12105 15222 ft 255 kts 232°
2026-04-27 14:41 21.72865 39.10657 14953 ft 253 kts 231°
2026-04-27 14:41 21.71719 39.09249 14695 ft 252 kts 231°
2026-04-27 14:41 21.70554 39.07818 14436 ft 251 kts 231°
2026-04-27 14:41 21.69414 39.06417 14184 ft 248 kts 231°
2026-04-27 14:42 21.68282 39.05025 13935 ft 246 kts 231°
2026-04-27 14:42 21.67149 39.03636 13684 ft 244 kts 230°
2026-04-27 14:42 21.65809 39.02547 13342 ft 251 kts 201°
2026-04-27 14:42 21.64040 39.02522 13141 ft 263 kts 165°
2026-04-27 14:43 21.62405 39.03472 12944 ft 271 kts 153°
2026-04-27 14:43 21.60802 39.04521 12708 ft 268 kts 156°
2026-04-27 14:43 21.59147 39.05430 12470 ft 262 kts 161°
2026-04-27 14:43 21.57495 39.06197 12233 ft 260 kts 163°
2026-04-27 14:44 21.55790 39.06914 11989 ft 259 kts 164°
2026-04-27 14:44 21.54117 39.07585 11748 ft 257 kts 164°
2026-04-27 14:44 21.52439 39.08250 11507 ft 256 kts 164°
2026-04-27 14:44 21.50768 39.08910 11269 ft 255 kts 164°
2026-04-27 14:45 21.49122 39.09565 11029 ft 253 kts 165°
2026-04-27 14:45 21.47465 39.10216 10783 ft 252 kts 164°
2026-04-27 14:45 21.45804 39.10870 10539 ft 251 kts 164°
2026-04-27 14:45 21.44180 39.11514 10299 ft 249 kts 163°
2026-04-27 14:46 21.42551 39.12156 10055 ft 249 kts 163°
2026-04-27 14:46 21.40915 39.12801 9787 ft 249 kts 163°
2026-04-27 14:46 21.39309 39.13436 9529 ft 249 kts 163°
2026-04-27 14:46 21.37670 39.14085 9270 ft 249 kts 163°
2026-04-27 14:47 21.36042 39.14728 9029 ft 249 kts 163°
2026-04-27 14:47 21.34421 39.15369 8791 ft 249 kts 162°
2026-04-27 14:47 21.32785 39.16016 8545 ft 249 kts 162°
2026-04-27 14:47 21.31158 39.16659 8289 ft 249 kts 162°
2026-04-27 14:48 21.29547 39.17295 8043 ft 249 kts 162°
2026-04-27 14:48 21.26589 39.19150 7428 ft 257 kts 120°
2026-04-27 14:48 21.26174 39.20998 7145 ft 259 kts 85°
2026-04-27 14:49 21.26689 39.22831 6817 ft 259 kts 57°
2026-04-27 14:49 21.27947 39.24184 6479 ft 257 kts 27°
2026-04-27 14:49 21.29613 39.24758 6231 ft 249 kts
2026-04-27 14:49 21.31301 39.25014 6067 ft 239 kts
2026-04-27 14:50 21.32919 39.25263 5893 ft 230 kts
2026-04-27 14:50 21.34468 39.25525 5674 ft 218 kts
2026-04-27 14:50 21.35930 39.25785 5385 ft 210 kts
2026-04-27 14:50 21.37363 39.25684 5010 ft 204 kts 341°
2026-04-27 14:51 21.38714 39.25225 4667 ft 202 kts 337°
2026-04-27 14:51 21.39993 39.24711 4459 ft 191 kts 336°
2026-04-27 14:51 21.41217 39.24206 4255 ft 184 kts 335°
2026-04-27 14:51 21.42402 39.23719 3968 ft 183 kts 336°
2026-04-27 14:52 21.43595 39.23235 3666 ft 182 kts 336°
2026-04-27 14:52 21.44782 39.22758 3372 ft 181 kts 336°
2026-04-27 14:52 21.45959 39.22288 3098 ft 178 kts 335°
2026-04-27 14:52 21.47103 39.21829 3031 ft 178 kts 335°
2026-04-27 14:53 21.48291 39.21357 3030 ft 179 kts 336°
2026-04-27 14:53 21.49464 39.20893 3026 ft 179 kts 336°
2026-04-27 14:53 21.50636 39.20433 3023 ft 179 kts 336°
2026-04-27 14:53 21.51802 39.19975 3008 ft 179 kts 336°
2026-04-27 14:54 21.52957 39.19522 2823 ft 172 kts 336°
2026-04-27 14:54 21.54060 39.19089 2601 ft 166 kts 336°
2026-04-27 14:54 21.55125 39.18668 2393 ft 159 kts 336°
2026-04-27 14:54 21.56142 39.18267 2196 ft 151 kts 336°
2026-04-27 14:55 21.57126 39.17881 2014 ft 149 kts 335°
2026-04-27 14:55 21.58108 39.17493 1837 ft 148 kts 335°
2026-04-27 14:55 21.59071 39.17109 1657 ft 147 kts 335°
2026-04-27 14:55 21.60035 39.16727 1467 ft 146 kts 336°
2026-04-27 14:56 21.60985 39.16372 1299 ft 145 kts 338°
2026-04-27 14:56 21.61939 39.16007 1115 ft 144 kts 335°
2026-04-27 14:56 21.62879 39.15607 923 ft 143 kts 335°
2026-04-27 14:56 21.63803 39.15231 736 ft 141 kts 337°
2026-04-27 14:57 21.64717 39.14878 557 ft 139 kts 337°
2026-04-27 14:57 21.65623 39.14517 375 ft 137 kts 337°
2026-04-27 14:57 21.66516 39.14170 192 ft 135 kts 338°
2026-04-27 14:57 21.67405 39.13825 76 ft 132 kts 339°
2026-04-27 14:58 21.68146 39.13524 65 ft 90 kts 340°
2026-04-27 14:58 21.68568 39.13359 65 ft 38 kts 339°
2026-04-27 14:58 21.68789 39.13273 64 ft 31 kts 339°
2026-04-27 14:58 21.68991 39.13200 64 ft 29 kts 348°
2026-04-27 14:59 21.69163 39.13194 64 ft 22 kts
2026-04-27 14:59 21.69271 39.13215 64 ft 0 kts 23°
2026-04-27 15:00 21.69275 39.13217 64 ft 2 kts 23°
2026-04-27 15:00 21.69296 39.13227 64 ft 4 kts 24°
2026-04-27 15:00 21.69325 39.13247 64 ft 5 kts 39°
2026-04-27 15:01 21.69352 39.13281 64 ft 6 kts 60°
2026-04-27 15:01 21.69365 39.13331 64 ft 8 kts 102°
2026-04-27 15:01 21.69311 39.13378 65 ft 11 kts 157°
2026-04-27 15:01 21.69230 39.13411 64 ft 12 kts 160°
2026-04-27 15:02 21.69142 39.13445 64 ft 14 kts 160°
2026-04-27 15:02 21.69047 39.13482 64 ft 14 kts 160°
2026-04-27 15:02 21.68945 39.13522 64 ft 15 kts 160°
2026-04-27 15:02 21.68841 39.13563 64 ft 16 kts 160°
2026-04-27 15:03 21.68731 39.13606 65 ft 16 kts 160°
2026-04-27 15:03 21.68620 39.13650 65 ft 17 kts 160°
2026-04-27 15:03 21.68505 39.13696 65 ft 17 kts 160°
2026-04-27 15:03 21.68396 39.13740 65 ft 11 kts 154°
2026-04-27 15:04 21.68353 39.13807 65 ft 11 kts 95°
2026-04-27 15:04 21.68382 39.13884 65 ft 11 kts 69°
2026-04-27 15:04 21.68409 39.13966 65 ft 12 kts 71°
2026-04-27 15:04 21.68441 39.14063 65 ft 15 kts 70°
2026-04-27 15:05 21.68481 39.14177 65 ft 16 kts 69°
2026-04-27 15:05 21.68522 39.14286 65 ft 15 kts 68°
2026-04-27 15:05 21.68562 39.14399 65 ft 16 kts 70°
2026-04-27 15:05 21.68598 39.14513 65 ft 16 kts 71°
2026-04-27 15:06 21.68636 39.14626 65 ft 16 kts 70°
2026-04-27 15:06 21.68674 39.14738 65 ft 15 kts 69°
2026-04-27 15:06 21.68714 39.14849 65 ft 15 kts 69°
2026-04-27 15:06 21.68753 39.14960 65 ft 16 kts 70°
2026-04-27 15:07 21.68791 39.15075 65 ft 16 kts 70°
2026-04-27 15:07 21.68829 39.15187 65 ft 16 kts 70°
2026-04-27 15:07 21.68869 39.15301 65 ft 16 kts 69°
2026-04-27 15:07 21.68908 39.15414 65 ft 16 kts 69°
2026-04-27 15:08 21.68941 39.15517 65 ft 11 kts 80°
2026-04-27 15:08 21.68906 39.15583 65 ft 11 kts 154°
2026-04-27 15:08 21.68825 39.15619 65 ft 13 kts 159°
2026-04-27 15:08 21.68728 39.15656 65 ft 17 kts 160°
2026-04-27 15:09 21.68590 39.15710 65 ft 22 kts 160°
2026-04-27 15:09 21.68445 39.15765 65 ft 21 kts 160°
2026-04-27 15:09 21.68302 39.15822 65 ft 21 kts 159°
2026-04-27 15:09 21.68162 39.15878 65 ft 21 kts 160°
2026-04-27 15:10 21.68023 39.15933 65 ft 21 kts 159°
2026-04-27 15:10 21.67885 39.15987 65 ft 21 kts 160°
2026-04-27 15:10 21.67747 39.16042 65 ft 20 kts 159°
2026-04-27 15:10 21.67650 39.16084 65 ft 9 kts 150°
2026-04-27 15:11 21.67621 39.16147 65 ft 10 kts 81°
2026-04-27 15:11 21.67645 39.16233 65 ft 13 kts 70°
2026-04-27 15:11 21.67664 39.16334 66 ft 12 kts 109°
2026-04-27 15:11 21.67591 39.16388 66 ft 13 kts 158°
2026-04-27 15:12 21.67497 39.16426 66 ft 14 kts 160°
2026-04-27 15:12 21.67399 39.16464 66 ft 15 kts 160°
2026-04-27 15:12 21.67306 39.16501 66 ft 6 kts 160°
2026-04-27 15:12 21.67261 39.16509 65 ft 6 kts 179°
2026-04-27 15:13 21.67212 39.16504 65 ft 8 kts 188°
2026-04-27 15:13 21.67184 39.16499 66 ft 3 kts 189°
2026-04-27 15:13 21.67163 39.16496 66 ft 1 kts 189°
2026-04-27 15:13 21.67159 39.16495 65 ft 0 kts 189°